EW5963 Weather Reports


time (UTC)temp
C
wind
direction
speed
KPH
gust
KPH
rain 1hr
cm
rain 24hr
cm
rain mn
cm
humidity
%
barometer
mb
20260510142806 23 137 4.8 14.5 0.00 0.00 0.00 84 1012.4
20260510141805 23 39 6.4 11.3 0.00 0.00 0.00 85 1012.1
20260510141306 23 168 6.4 9.7 0.00 0.00 0.00 85 1012.1
20260510140305 23 175 0.0 6.4 0.00 0.00 0.00 85 1012.0
20260510135805 23 111 3.2 8.0 0.00 0.00 0.00 85 1012.0
20260510134805 23 199 1.6 14.5 0.00 0.00 0.00 85 1012.0
20260510134305 22 107 8.0 14.5 0.00 0.00 0.00 85 1011.9
20260510132805 22 113 6.4 11.3 0.00 0.00 0.00 85 1012.0
20260510132306 22 106 3.2 9.7 0.00 0.00 0.00 86 1011.9
20260510131803 22 133 6.4 14.5 0.00 0.00 0.00 86 1011.7
20260510131304 22 196 8.0 14.5 0.00 0.00 0.00 86 1011.6
20260510130804 22 113 6.4 8.0 0.00 0.00 0.00 86 1011.6
20260510130305 22 176 3.2 11.3 0.00 0.00 0.00 86 1011.6
20260510125805 22 127 8.0 11.3 0.00 0.00 0.00 85 1011.6
20260510125307 22 110 3.2 11.3 0.00 0.00 0.00 85 1011.5
20260510124804 22 120 8.0 14.5 0.00 0.00 0.00 85 1011.4
20260510124306 22 116 8.0 14.5 0.00 0.00 0.00 85 1011.4
20260510123805 22 141 6.4 11.3 0.00 0.00 0.00 85 1011.2
20260510123304 22 117 0.0 6.4 0.00 0.00 0.00 85 1011.1
20260510122804 22 123 3.2 6.4 0.00 0.00 0.00 85 1011.1
20260510122306 22 0 1.6 6.4 0.00 0.00 0.00 85 1011.1
20260510121801 22 0 0.0 6.4 0.00 0.00 0.00 85 1011.1
20260510121301 22 120 3.2 8.0 0.00 0.00 0.00 85 1011.2
20260510120800 22 100 3.2 8.0 0.00 0.00 0.00 85 1011.0
20260510120303 22 72 3.2 8.0 0.00 0.00 0.00 85 1011.0
20260510115803 22 134 4.8 11.3 0.00 0.00 0.00 85 1010.9
20260510115305 22 79 6.4 11.3 0.00 0.00 0.00 85 1011.0
20260510114303 22 106 1.6 6.4 0.00 0.00 0.00 85 1010.9
20260510113801 22 75 3.2 8.0 0.00 0.00 0.00 85 1010.8
20260510112801 22 123 4.8 8.0 0.00 0.00 0.00 85 1010.8
20260510112300 22 144 3.2 6.4 0.00 0.00 0.00 85 1010.9
20260510111303 22 135 1.6 6.4 0.00 0.00 0.00 85 1010.7
20260510110804 22 338 0.0 6.4 0.00 0.00 0.00 85 1010.9
20260510105804 22 125 4.8 9.7 0.00 0.00 0.00 85 1010.9
20260510105306 22 168 6.4 8.0 0.00 0.03 0.00 85 1010.8
20260510104803 22 159 3.2 6.4 0.00 0.03 0.00 85 1010.8
20260510104303 22 110 3.2 6.4 0.00 0.05 0.00 85 1010.8
20260510103803 22 130 3.2 6.4 0.00 0.05 0.00 85 1010.8
20260510103303 22 117 4.8 8.0 0.00 0.08 0.00 85 1010.8
20260510102803 22 110 4.8 8.0 0.00 0.10 0.00 85 1010.8
20260510102305 22 133 3.2 11.3 0.00 0.13 0.00 84 1010.8
20260510101804 22 135 6.4 11.3 0.00 0.15 0.00 84 1010.8
20260510101304 22 124 6.4 11.3 0.00 0.18 0.00 84 1010.8
20260510100802 22 130 4.8 9.7 0.00 0.18 0.00 84 1010.9
20260510100301 22 0 6.4 11.3 0.00 0.20 0.00 84 1010.8
20260510095801 22 144 6.4 11.3 0.00 0.25 0.00 84 1010.9
20260510094801 21 118 8.0 8.0 0.00 0.33 0.00 84 1011.1
20260510094301 21 106 4.8 8.0 0.00 0.36 0.00 84 1011.1
20260510093300 21 0 4.8 8.0 0.00 0.41 0.00 83 1011.0
20260510092801 21 85 4.8 6.4 0.00 0.46 0.00 83 1010.9
20260510091801 21 118 3.2 6.4 0.00 0.46 0.00 83 1010.9
20260510091300 21 110 4.8 8.0 0.00 0.46 0.00 83 1010.9
20260510090800 21 78 3.2 8.0 0.00 0.46 0.00 83 1010.8
20260510090300 21 103 4.8 6.4 0.00 0.46 0.00 82 1010.7
20260510085759 21 116 4.8 6.4 0.00 0.46 0.00 82 1010.6
20260510085300 21 110 1.6 6.4 0.00 0.46 0.00 82 1010.7
20260510084800 21 121 4.8 6.4 0.00 0.46 0.00 82 1010.7
20260510084300 21 80 4.8 6.4 0.00 0.46 0.00 82 1010.8
20260510083800 20 109 4.8 4.8 0.00 0.46 0.00 82 1010.7
20260510083300 20 0 1.6 4.8 0.00 0.46 0.00 82 1010.6
20260510082759 20 107 0.0 4.8 0.00 0.46 0.00 82 1010.7
20260510082257 20 110 1.6 4.8 0.00 0.46 0.00 81 1010.6
20260510081757 20 134 0.0 6.4 0.00 0.46 0.00 81 1010.7
20260510081259 20 114 1.6 8.0 0.00 0.46 0.00 81 1010.7
20260510080759 20 72 4.8 8.0 0.00 0.46 0.00 81 1010.9
20260510080259 20 63 4.8 6.4 0.00 0.46 0.00 81 1010.9
20260510075759 20 87 6.4 6.4 0.00 0.46 0.00 80 1010.9
20260510075259 20 86 4.8 6.4 0.00 0.46 0.00 80 1010.7
20260510074759 20 110 0.0 1.6 0.00 0.46 0.00 80 1010.6
20260510074259 20 0 0.0 1.6 0.00 0.46 0.00 80 1010.7
20260510073759 20 202 0.0 1.6 0.00 0.46 0.00 80 1010.6
20260510073258 20 0 0.0 1.6 0.00 0.46 0.00 80 1010.7
20260510072759 20 24 0.0 1.6 0.00 0.46 0.00 80 1010.8
20260510072259 20 350 0.0 1.6 0.00 0.46 0.00 80 1010.9
20260510071759 20 285 0.0 1.6 0.00 0.46 0.00 80 1010.9
20260510071259 20 310 0.0 4.8 0.00 0.46 0.00 80 1010.9
20260510070758 20 231 0.0 4.8 0.00 0.46 0.00 79 1010.9
20260510070258 21 258 0.0 3.2 0.00 0.46 0.00 79 1010.9
20260510065758 21 34 0.0 4.8 0.00 0.46 0.00 79 1011.0
20260510065258 21 51 0.0 6.4 0.00 0.46 0.00 79 1011.0
20260510064758 21 65 3.2 6.4 0.00 0.46 0.00 79 1011.0
20260510063758 21 63 3.2 6.4 0.00 0.46 0.00 79 1011.1
20260510063258 21 68 3.2 4.8 0.00 0.46 0.00 79 1011.1
20260510062758 21 0 3.2 6.4 0.00 0.46 0.00 78 1011.1
20260510062257 21 69 4.8 8.0 0.00 0.46 0.00 78 1011.1
20260510061758 21 65 4.8 9.7 0.00 0.46 0.00 78 1011.2
20260510061257 21 124 6.4 9.7 0.00 0.46 0.00 78 1011.1
20260510060756 21 73 4.8 9.7 0.00 0.46 0.00 78 1011.2
20260510060257 21 63 4.8 9.7 0.00 0.46 0.00 77 1011.1
20260510055757 21 0 6.4 9.7 0.00 0.46 0.00 77 1011.1
20260510055257 21 63 6.4 6.4 0.00 0.46 0.00 76 1011.1
20260510054757 21 113 1.6 4.8 0.00 0.46 0.00 76 1010.9
20260510054257 21 44 0.0 3.2 0.00 0.46 0.00 75 1010.9
20260510053757 22 130 0.0 4.8 0.00 0.46 0.00 75 1010.8
20260510053257 22 124 0.0 4.8 0.00 0.46 0.00 75 1010.9
20260510052756 22 71 4.8 4.8 0.00 0.46 0.00 74 1010.8
20260510052257 22 48 3.2 4.8 0.00 0.46 0.00 73 1010.8
20260510051756 22 59 0.0 1.6 0.00 0.46 0.00 73 1010.7
20260510051256 22 3 0.0 3.2 0.00 0.46 0.00 73 1010.7
20260510050757 22 44 1.6 3.2 0.00 0.46 0.00 73 1010.7
20260510050257 22 72 0.0 3.2 0.00 0.46 0.00 73 1010.7
20260510045756 22 32 0.0 0.0 0.00 0.46 0.46 73 1010.5
20260510045256 22 107 0.0 4.8 0.00 0.46 0.46 73 1010.4
20260510044756 23 296 0.0 4.8 0.00 0.46 0.46 72 1010.5
20260510044256 23 109 0.0 3.2 0.00 0.46 0.46 72 1010.5
20260510043756 23 257 0.0 4.8 0.00 0.46 0.46 72 1010.4
20260510043256 23 49 0.0 4.8 0.00 0.46 0.46 72 1010.4
20260510042756 23 231 0.0 4.8 0.00 0.46 0.46 72 1010.4
20260510042256 23 23 0.0 4.8 0.00 0.46 0.46 72 1010.4
20260510041755 23 54 0.0 1.6 0.00 0.46 0.46 72 1010.5
20260510041255 23 330 0.0 4.8 0.00 0.46 0.46 72 1010.4
20260510040756 23 293 0.0 9.7 0.00 0.46 0.46 72 1010.4
20260510040255 23 66 3.2 14.5 0.00 0.46 0.46 72 1010.2
20260510035255 23 127 8.0 16.1 0.00 0.46 0.46 71 1010.2
20260510034755 23 0 6.4 14.5 0.00 0.46 0.46 71 1010.2
20260510033754 24 133 8.0 14.5 0.00 0.46 0.46 70 1010.1
20260510033255 23 125 8.0 16.1 0.00 0.46 0.46 70 1010.0
20260510032254 24 138 9.7 14.5 0.00 0.46 0.46 70 1009.9
20260510031755 24 130 9.7 16.1 0.00 0.46 0.46 70 1009.9
20260510031254 24 55 9.7 16.1 0.00 0.46 0.46 70 1009.8
20260510030254 24 69 6.4 14.5 0.00 0.46 0.46 70 1009.8
20260510025754 25 102 6.4 9.7 0.00 0.46 0.46 70 1009.8
20260510024753 25 59 4.8 11.3 0.00 0.46 0.46 69 1009.7
20260510024254 25 72 3.2 9.7 0.00 0.46 0.46 69 1009.5
20260510023254 25 90 4.8 9.7 0.00 0.46 0.46 68 1009.4
20260510022753 25 0 4.8 11.3 0.00 0.46 0.46 67 1009.2
20260510022254 26 85 6.4 14.5 0.00 0.46 0.46 67 1009.1
20260510021754 26 80 8.0 14.5 0.00 0.46 0.46 66 1009.0
20260510021253 26 120 6.4 14.5 0.00 0.46 0.46 65 1008.9
20260510020753 26 72 6.4 14.5 0.00 0.46 0.46 64 1009.0
20260510020253 26 151 6.4 16.1 0.00 0.46 0.46 64 1008.9
20260510015753 26 121 8.0 16.1 0.00 0.46 0.46 64 1008.8
20260510015252 26 130 8.0 16.1 0.00 0.46 0.46 64 1008.5
20260510014753 26 123 8.0 19.3 0.00 0.46 0.46 63 1008.5
20260510014253 26 120 8.0 20.9 0.00 0.46 0.46 63 1008.4
20260510013754 26 140 11.3 20.9 0.00 0.46 0.46 63 1008.2
20260510012753 27 134 8.0 17.7 0.00 0.46 0.46 62 1008.0
20260510012253 27 134 9.7 27.4 0.00 0.46 0.46 62 1008.0
20260510011252 27 148 14.5 20.9 0.00 0.46 0.46 63 1008.0
20260510010752 27 127 11.3 20.9 0.00 0.46 0.46 63 1008.0
20260510005752 28 127 11.3 20.9 0.00 0.46 0.46 63 1007.9
20260510005252 28 121 12.9 24.1 0.00 0.46 0.46 62 1007.9
20260510004249 28 134 11.3 20.9 0.00 0.46 0.46 61 1007.9
20260510003250 28 162 12.9 29.0 0.00 0.46 0.46 60 1008.0
20260510002750 29 127 16.1 25.7 0.00 0.46 0.46 59 1007.9
20260510001752 29 131 14.5 29.0 0.00 0.46 0.46 58 1007.8
20260510001252 29 135 17.7 25.7 0.00 0.46 0.46 57 1007.8
20260510000251 30 168 16.1 29.0 0.00 0.46 0.46 56 1007.8
20260509235751 30 158 14.5 29.0 0.00 0.46 0.46 56 1007.8
20260509234750 30 137 17.7 33.8 0.00 0.46 0.46 55 1007.7
20260509234251 30 142 14.5 33.8 0.00 0.46 0.46 54 1007.6
20260509233751 31 149 19.3 29.0 0.00 0.46 0.46 53 1007.6
20260509233250 31 141 17.7 29.0 0.00 0.46 0.46 52 1007.6
20260509232750 31 130 12.9 29.0 0.00 0.46 0.46 51 1007.5
20260509232250 31 140 12.9 20.9 0.00 0.46 0.46 47 1007.6
20260509231750 32 141 11.3 19.3 0.00 0.46 0.46 48 1007.6
20260509231250 32 149 11.3 19.3 0.00 0.46 0.46 47 1007.7
20260509230750 32 138 12.9 19.3 0.00 0.46 0.46 47 1007.6
20260509230250 32 127 6.4 19.3 0.00 0.46 0.46 47 1007.5
20260509225750 32 127 12.9 19.3 0.00 0.46 0.46 47 1007.6
20260509225250 32 175 6.4 20.9 0.00 0.46 0.46 47 1007.5
20260509224750 32 200 8.0 24.1 0.00 0.46 0.46 47 1007.5
20260509224250 32 161 14.5 24.1 0.00 0.46 0.46 47 1007.6
20260509223750 32 176 8.0 17.7 0.00 0.46 0.46 47 1007.6
20260509223248 32 152 9.7 19.3 0.00 0.46 0.46 46 1007.6
20260509222748 32 149 6.4 24.1 0.00 0.46 0.46 46 1007.6
20260509222249 33 109 12.9 24.1 0.00 0.46 0.46 45 1007.5
20260509221750 33 185 6.4 16.1 0.00 0.46 0.46 46 1007.5
20260509221249 33 197 6.4 14.5 0.00 0.46 0.46 47 1007.5
20260509220749 32 161 4.8 17.7 0.00 0.46 0.46 46 1007.6
20260509220250 32 152 9.7 17.7 0.00 0.46 0.46 46 1007.5
20260509215749 32 180 8.0 14.5 0.00 0.46 0.46 47 1007.5
20260509215249 32 166 6.4 16.1 0.00 0.46 0.46 47 1007.5
20260509214748 32 199 9.7 16.1 0.00 0.46 0.46 46 1007.5
20260509214248 33 114 9.7 16.1 0.00 0.46 0.46 45 1007.6
20260509213748 32 210 8.0 17.7 0.00 0.46 0.46 48 1007.6
20260509213248 32 133 9.7 17.7 0.00 0.46 0.46 45 1007.6
20260509212749 33 155 8.0 16.1 0.00 0.46 0.46 45 1007.6
20260509212249 33 173 6.4 16.1 0.00 0.46 0.46 45 1007.6
20260509211749 33 172 4.8 16.1 0.00 0.46 0.46 46 1007.6
20260509211249 33 154 6.4 14.5 0.00 0.46 0.46 46 1007.6
20260509210748 33 147 6.4 14.5 0.00 0.46 0.46 45 1007.5
20260509210248 33 158 6.4 16.1 0.00 0.46 0.46 45 1007.6
20260509205747 33 257 8.0 16.1 0.00 0.46 0.46 44 1007.8
20260509205248 33 179 6.4 14.5 0.00 0.46 0.46 46 1007.8
20260509204748 33 285 4.8 17.7 0.00 0.46 0.46 46 1007.8
20260509204248 33 264 9.7 17.7 0.00 0.46 0.46 46 1007.8
20260509203748 32 264 6.4 11.3 0.00 0.46 0.46 46 1007.9
20260509203248 32 223 4.8 14.5 0.00 0.46 0.46 49 1008.0
20260509202748 32 190 3.2 14.5 0.00 0.46 0.46 46 1008.1
20260509202247 32 131 9.7 14.5 0.00 0.46 0.46 47 1008.2
20260509201748 32 226 8.0 14.5 0.00 0.46 0.46 47 1008.3
20260509201247 32 158 3.2 16.1 0.00 0.46 0.46 48 1008.2
20260509200748 33 185 9.7 17.7 0.00 0.46 0.46 48 1008.2
20260509200247 33 212 11.3 17.7 0.00 0.46 0.46 49 1008.3
20260509195746 32 228 6.4 11.3 0.00 0.46 0.46 49 1008.3
20260509195247 32 192 6.4 9.7 0.00 0.46 0.46 50 1008.4
20260509194747 32 144 3.2 14.5 0.00 0.46 0.46 48 1008.5
20260509194247 32 226 4.8 14.5 0.00 0.46 0.46 47 1008.7
20260509193746 32 203 3.2 14.5 0.00 0.46 0.46 49 1008.6
20260509193246 32 196 9.7 16.1 0.00 0.46 0.46 49 1008.6
20260509192746 32 217 8.0 16.1 0.00 0.46 0.46 48 1008.7
20260509192246 32 154 9.7 16.1 0.00 0.46 0.46 49 1008.8
20260509191746 32 142 9.7 14.5 0.00 0.46 0.46 48 1008.8
20260509191246 32 237 8.0 16.1 0.00 0.46 0.46 49 1008.8
20260509190746 32 288 6.4 16.1 0.00 0.46 0.46 48 1008.9
20260509190246 32 157 6.4 19.3 0.00 0.46 0.46 51 1009.0
20260509185746 32 235 6.4 19.3 0.00 0.46 0.46 51 1009.2
20260509185246 32 237 3.2 14.5 0.00 0.46 0.46 52 1009.1
20260509184746 32 182 6.4 11.3 0.00 0.46 0.46 53 1009.3
20260509184246 32 185 4.8 11.3 0.00 0.46 0.46 54 1009.4
20260509183245 31 207 6.4 14.5 0.00 0.46 0.46 55 1009.5
20260509182746 31 233 4.8 14.5 0.00 0.46 0.46 56 1009.5
20260509181746 30 212 8.0 17.7 0.00 0.46 0.46 57 1009.6
20260509181245 30 213 8.0 14.5 0.00 0.46 0.46 58 1009.7
20260509180246 30 179 6.4 16.1 0.00 0.46 0.46 57 1009.7
20260509175746 30 245 4.8 16.1 0.00 0.46 0.46 60 1009.9
20260509175245 30 251 4.8 14.5 0.00 0.46 0.46 60 1009.8
20260509174744 30 220 6.4 14.5 0.00 0.46 0.46 60 1009.9
20260509174245 30 226 9.7 14.5 0.00 0.46 0.46 59 1009.8
20260509173745 30 219 6.4 14.5 0.00 0.46 0.46 62 1009.7
20260509173243 30 244 8.0 17.7 0.00 0.46 0.46 62 1009.7
20260509172744 30 220 8.0 17.7 0.00 0.46 0.46 63 1009.8
20260509172244 30 220 8.0 16.1 0.00 0.46 0.46 65 1009.8
20260509171744 29 216 6.4 14.5 0.00 0.46 0.46 65 1010.0
20260509171244 29 207 8.0 16.1 0.00 0.46 0.46 65 1009.9
20260509170744 28 212 9.7 17.7 0.00 0.46 0.46 65 1009.9
20260509170244 29 244 8.0 17.7 0.00 0.46 0.46 66 1009.9
20260509165744 29 178 4.8 17.7 0.00 0.46 0.46 66 1009.8
20260509165244 29 162 6.4 17.7 0.00 0.46 0.46 66 1009.8
20260509164743 28 131 4.8 16.1 0.00 0.46 0.46 66 1009.9
20260509164243 28 250 6.4 16.1 0.00 0.46 0.46 66 1009.9
20260509163744 28 196 6.4 11.3 0.00 0.46 0.46 67 1010.0
20260509163243 28 199 3.2 16.1 0.00 0.46 0.46 67 1010.2
20260509162743 28 76 4.8 16.1 0.00 0.46 0.46 67 1010.2
20260509162243 28 157 4.8 14.5 0.00 0.46 0.46 68 1010.3
20260509161743 28 233 3.2 11.3 0.00 0.46 0.46 67 1010.2
20260509161243 28 261 4.8 14.5 0.00 0.46 0.46 68 1010.2
20260509160743 27 189 3.2 17.7 0.00 0.46 0.46 68 1010.3
20260509160242 27 158 6.4 17.7 0.00 0.46 0.46 69 1010.2
20260509155743 27 241 4.8 11.3 0.00 0.46 0.46 70 1010.4
20260509155243 27 230 4.8 9.7 0.00 0.46 0.46 71 1010.4
20260509154742 26 224 3.2 9.7 0.00 0.46 0.46 72 1010.5
20260509154243 26 281 1.6 8.0 0.00 0.46 0.46 73 1010.7
20260509153742 26 282 4.8 11.3 0.00 0.46 0.46 75 1010.7
20260509153242 26 20 3.2 14.5 0.00 0.46 0.46 75 1010.8
20260509152241 25 326 9.7 16.1 0.00 0.46 0.46 77 1010.8
20260509151742 25 344 9.7 14.5 0.00 0.46 0.46 78 1010.8
20260509150742 24 30 6.4 9.7 0.00 0.46 0.46 80 1010.9
20260509150243 24 3 3.2 8.0 0.00 0.46 0.46 81 1010.8
20260509145241 23 350 1.6 8.0 0.00 0.46 0.46 82 1010.7
20260509144742 23 334 6.4 8.0 0.00 0.46 0.46 83 1010.7
20260509143740 23 259 1.6 9.7 0.00 0.46 0.46 85 1010.7
20260509143242 22 330 4.8 9.7 0.00 0.46 0.46 85 1010.6